Location: LDNL
(36.4545°S, 141.6685°E)
Time: 11:56:21
(UTC+10:00)

Vanguard 3 - Pass Details

Date: 28 January 2022
Orbit: 508 x 3258 km, 33.3° (Epoch: 25 May)

Event Time Altitude Azimuth Distance (km) Brightness Sun altitude
Rises 07:04:47 0° 258° (WSW) 6,033 11.1 2.8°
Reaches altitude 10° 07:08:34 10° 263° (W) 5,329 10.8 3.5°
Maximum altitude 07:24:13 45° 328° (NNW) 3,947 10.4 6.5°
Drops below altitude 10° 07:42:08 10° 32° (NNE) 5,999 11.8 10.0°
Sets 07:46:48 0° 38° (NE) 6,815 12.2 10.9°
